Location: Danville Conservation Area
(38.8674°N, 91.5143°W)
Time: 11:05:03
(UTC-06:00)

ISS - Pass Details

Date: 09 December 2021
Orbit: 413 x 422 km, 51.6° (Epoch: 19 January)

Event Time Altitude Azimuth Distance (km) Brightness Sun altitude
Rises 17:55:22 0° 298° (WNW) 2,377 0.8 -13.5°
Reaches altitude 10° 17:57:43 10° 284° (WNW) 1,507 0.0 -14.0°
Maximum altitude 18:00:31 24° 228° (SW) 906 -1.3 -14.5°
Drops below altitude 10° 18:03:18 10° 171° (S) 1,493 -0.9 -15.0°
Enters shadow 18:08:35 -9° 150° (SSE) 3,527 0.8 -16.0°
